Wind_Speed
32 32 32 31 31 32 33 33 33 33 34 34 35 35 35 37 39 40 41 41 41 42 42 42 42 43 43 43 44 44 44 44 43 43 43 43 42 42 42 41 40 39 37 36
32 32 31 31 31 32 32 33 33 34 34 35 35 35 35 36 38 39 41 40 40 41 42 43 43 43 43 43 44 44 44 44 44 43 43 43 43 42 43 43 42 41 39 38
32 31 31 31 31 32 33 33 33 35 35 36 37 36 34 34 35 36 38 39 39 39 40 41 41 42 42 42 43 43 43 43 44 44 44 44 44 43 44 43 43 42 41 40
30 30 30 31 30 31 32 33 34 35 36 35 35 36 32 33 34 34 34 36 38 38 38 39 40 40 41 41 42 42 42 42 43 44 44 44 44 43 43 43 43 43 42 41
30 29 30 30 30 31 32 33 33 34 34 35 34 36 33 32 32 32 33 34 35 36 37 38 39 40 40 40 40 41 41 40 40 41 42 42 42 42 42 42 42 43 43 42
29 29 29 29 30 31 32 33 33 33 34 35 33 35 33 31 31 31 33 34 34 35 37 38 38 39 40 39 38 39 40 39 39 39 40 41 41 42 42 42 42 43 43 42
28 29 29 29 29 30 31 31 32 33 34 34 33 34 33 31 30 30 32 33 34 34 35 36 36 37 38 38 38 37 38 38 38 39 39 40 41 42 42 42 43 43 43 42
29 29 29 29 29 29 29 30 30 32 33 32 32 33 31 31 30 30 31 32 33 33 34 35 35 35 36 36 36 37 37 37 36 37 38 39 39 40 41 41 42 43 43 43
29 29 28 28 28 28 28 28 29 31 32 31 31 32 30 30 30 30 30 31 32 32 33 33 33 33 34 35 35 36 37 36 35 36 37 37 38 39 39 40 41 43 43 42
29 29 29 28 27 27 28 27 28 29 31 31 31 30 29 27 27 28 29 30 31 32 32 32 32 33 34 34 35 35 36 36 35 35 35 36 36 37 38 39 40 40 41 41
29 29 28 28 28 27 27 27 27 29 30 31 31 30 28 27 27 28 28 29 29 30 31 31 32 33 33 34 34 35 36 35 34 34 33 34 35 35 36 37 38 39 40 40
28 28 28 28 28 28 28 28 28 29 30 31 32 30 27 28 29 29 28 29 29 30 31 32 33 33 33 33 34 35 35 35 34 34 34 33 34 35 35 36 37 38 38 38
27 27 28 27 28 28 28 28 29 30 31 32 32 31 28 29 29 29 28 28 29 29 30 31 33 34 34 34 34 35 35 35 35 35 34 34 34 35 35 36 36 36 36 37
27 27 27 28 28 28 28 28 29 30 31 32 32 31 29 28 28 29 28 28 29 29 29 30 32 33 34 35 35 35 35 34 35 35 35 34 35 35 35 35 35 36 36 37
27 28 28 28 29 29 28 28 29 31 32 33 31 30 29 28 29 29 29 29 29 29 29 29 30 31 32 34 34 35 35 35 35 35 35 35 34 34 35 36 36 36 37 38
28 28 29 29 30 30 30 28 29 30 32 32 31 29 29 29 29 30 30 29 29 29 30 29 29 29 30 32 34 35 36 36 36 36 35 35 36 36 36 36 36 36 37 38
30 30 30 31 31 31 31 29 30 30 30 31 31 30 30 30 29 29 29 30 30 30 30 30 31 31 30 32 33 34 36 36 37 37 37 36 36 36 37 37 36 36 37 37
29 30 31 31 31 31 29 29 30 30 30 30 31 31 31 31 30 30 30 31 31 31 31 31 31 31 31 32 32 34 35 36 36 37 37 36 36 37 38 37 36 37 37 37
29 30 31 31 31 30 28 28 29 30 30 30 31 31 32 31 31 31 31 31 31 31 31 31 31 31 31 32 32 33 35 35 35 36 36 36 37 37 38 38 37 38 38 38
28 29 31 31 30 29 27 28 28 30 30 30 30 31 31 31 31 30 31 32 31 32 32 31 31 32 33 33 33 33 33 33 34 35 35 36 37 37 37 37 37 38 38 38
28 28 29 30 30 28 28 29 29 30 30 30 30 30 31 31 31 31 31 32 32 31 31 31 32 32 33 33 33 33 33 33 33 34 34 35 36 36 36 37 37 37 38 38
26 27 28 29 29 27 27 29 30 31 30 29 29 29 30 31 31 31 31 32 32 31 32 32 32 32 33 33 34 34 33 33 33 33 33 34 35 35 36 37 37 37 37 37
26 27 27 28 27 27 27 28 28 29 29 29 29 29 30 31 31 31 31 31 31 31 31 31 32 32 32 32 33 33 33 33 33 33 33 34 34 34 34 35 35 36 36 37
25 26 27 27 26 27 27 27 27 27 28 28 28 29 30 30 31 30 29 29 29 30 30 30 30 30 30 31 32 31 31 31 31 31 32 32 32 32 33 33 34 35 35 35
24 25 26 26 25 26 26 26 26 26 26 27 27 27 28 28 28 28 28 29 29 29 29 30 30 30 30 30 30 30 30 30 30 30 30 31 31 32 32 32 32 32 33 33
24 25 26 25 25 26 26 26 25 25 25 26 26 27 27 27 27 27 27 27 28 28 29 29 29 30 30 29 29 29 29 29 29 30 29 29 29 30 30 31 31 31 31 30
Wind_Direction
279 276 275 273 272 272 269 266 265 264 263 261 259 258 256 255 254 253 251 251 250 249 248 249 250 250 250 250 251 251 252 253 253 254 254 254 254 255 254 254 254 256 257 258
280 277 274 272 271 269 268 267 266 264 262 261 259 258 255 255 256 254 252 251 251 249 249 250 251 251 251 251 251 251 252 253 253 253 255 254 254 254 254 254 253 255 255 256
280 277 273 273 272 269 268 268 267 266 264 263 262 258 256 257 258 255 253 252 251 251 251 251 251 251 251 252 251 251 251 252 252 253 253 253 253 254 254 253 252 253 253 255
279 274 273 273 272 269 268 268 269 268 266 263 262 263 258 256 256 255 253 252 252 253 252 251 252 253 252 251 251 250 250 251 252 252 253 253 253 253 253 253 252 252 253 253
279 275 274 274 274 271 269 268 269 267 265 263 262 264 263 258 255 254 254 254 254 254 253 252 252 253 253 252 252 250 250 249 252 252 252 251 251 251 251 251 252 252 252 253
277 277 276 275 274 273 271 270 269 266 263 261 261 264 265 260 258 256 255 255 254 255 255 254 254 253 253 252 252 251 250 250 250 251 251 250 251 251 251 250 251 251 252 253
278 277 276 273 273 271 270 269 268 266 264 264 263 264 266 263 261 260 258 256 255 255 256 256 256 254 252 251 251 252 250 250 250 251 251 250 252 252 251 251 251 251 252 252
281 278 276 274 274 274 271 268 267 267 267 268 265 265 265 265 265 263 262 259 256 255 255 255 255 254 252 251 251 251 250 249 249 251 252 251 251 252 253 253 252 252 251 252
282 279 276 276 276 274 271 267 266 265 267 268 266 266 265 265 266 264 264 261 258 256 255 254 252 252 252 252 250 248 248 248 249 250 251 251 252 253 254 254 254 252 252 253
283 281 277 277 276 274 271 268 266 264 266 269 269 268 269 267 265 263 264 263 259 257 255 253 251 252 251 251 249 247 247 247 248 249 250 251 251 254 255 254 253 253 253 254
281 280 278 276 276 274 270 267 265 265 267 270 270 270 271 267 265 265 264 263 261 258 255 254 253 252 250 248 248 247 247 245 247 249 250 250 251 254 254 254 255 255 255 255
279 279 277 277 275 272 270 268 266 266 269 270 272 272 270 267 265 265 264 262 261 258 256 254 253 252 250 249 248 247 246 247 248 249 250 251 254 254 255 255 256 256 255 255
279 278 277 277 275 272 270 268 266 267 267 269 271 273 269 267 265 263 263 261 259 258 257 255 253 252 250 249 249 249 248 248 248 248 251 253 253 255 256 256 255 255 254 254
277 274 274 277 276 274 271 268 266 266 267 269 271 271 268 265 264 262 261 260 260 259 257 255 254 253 251 250 250 250 250 249 249 249 251 253 254 255 256 255 254 255 255 255
276 275 275 275 274 272 270 269 266 265 267 268 268 268 266 263 263 262 261 259 259 259 258 257 256 253 250 250 251 251 251 252 251 251 252 253 255 255 255 255 255 256 256 255
274 275 276 274 272 270 267 266 266 266 265 264 263 263 263 263 263 263 261 259 259 259 259 258 256 255 252 251 252 253 253 254 253 253 255 255 255 255 255 256 256 256 256 255
272 273 274 274 273 270 267 266 265 264 263 263 262 262 261 261 262 262 261 260 260 260 259 257 255 255 254 254 254 254 254 255 256 255 255 255 255 254 256 257 256 256 256 257
272 271 272 274 273 271 270 268 266 265 264 263 262 262 262 262 262 262 261 260 260 260 259 257 255 255 255 255 256 256 255 255 256 256 256 256 256 255 256 255 256 256 256 256
271 271 272 275 276 275 272 272 270 268 266 263 263 262 263 264 264 263 263 261 260 260 259 257 256 256 257 257 256 256 256 255 256 257 258 257 257 256 257 256 257 257 257 257
271 271 272 275 275 277 276 275 273 272 269 266 264 263 264 264 265 263 262 262 262 261 260 258 257 257 258 258 257 257 256 256 257 258 259 259 258 258 258 257 258 259 258 257
272 271 272 274 274 275 277 278 277 276 274 269 266 266 265 265 266 266 264 263 263 261 260 258 257 259 259 258 256 255 256 257 258 258 258 259 259 258 259 259 259 259 259 259
273 273 272 272 273 276 277 277 276 276 274 271 269 269 269 268 267 267 267 265 264 263 261 259 259 259 259 258 256 255 256 256 258 258 259 259 260 260 260 260 260 261 260 260
274 273 272 272 274 276 277 278 277 275 274 272 271 270 270 269 270 270 269 266 264 262 262 260 260 259 258 258 257 256 257 257 258 259 260 260 260 260 261 262 261 262 262 261
274 273 273 273 274 276 277 277 277 277 276 272 272 272 271 271 270 269 267 265 264 261 261 261 260 258 258 257 257 257 257 257 258 259 259 260 260 260 262 263 263 263 264 265
273 274 274 274 274 275 276 276 275 276 276 273 270 271 270 270 269 268 268 266 263 261 262 262 260 259 258 257 257 257 259 259 259 259 260 260 261 261 262 263 263 264 265 266
273 275 276 275 274 276 277 278 277 277 276 273 272 271 269 268 268 268 268 267 264 262 262 262 261 260 258 258 258 259 259 260 260 260 261 261 261 261 262 262 262 263 264 265
Height
5665 5665 5664 5663 5663 5663 5662 5663 5664 5665 5664 5664 5665 5667 5669 5670 5672 5674 5677 5680 5683 5686 5690 5692 5695 5698 5701 5704 5707 5710 5713 5716 5718 5721 5723 5726 5729 5731 5733 5736 5738 5740 5742 5743
5658 5656 5656 5655 5655 5654 5654 5655 5655 5656 5655 5655 5656 5658 5660 5661 5663 5665 5667 5669 5673 5676 5679 5682 5684 5687 5690 5693 5696 5699 5702 5705 5708 5711 5713 5716 5719 5721 5724 5726 5729 5731 5732 5734
5648 5649 5648 5647 5647 5647 5647 5647 5647 5647 5647 5646 5647 5649 5652 5653 5654 5655 5657 5660 5662 5665 5668 5671 5674 5676 5679 5682 5685 5687 5691 5694 5696 5699 5702 5705 5708 5711 5713 5716 5719 5721 5723 5725
5640 5640 5640 5640 5639 5638 5639 5639 5638 5638 5638 5638 5639 5639 5644 5645 5646 5647 5649 5651 5653 5656 5658 5661 5663 5666 5668 5671 5674 5676 5679 5682 5685 5688 5691 5694 5698 5701 5703 5706 5708 5711 5713 5715
5632 5632 5632 5632 5632 5631 5631 5630 5630 5629 5629 5629 5631 5630 5635 5637 5638 5640 5641 5643 5645 5647 5649 5651 5653 5656 5658 5660 5663 5665 5668 5671 5674 5677 5680 5683 5687 5690 5692 5695 5697 5700 5703 5705
5625 5624 5624 5625 5624 5623 5622 5622 5621 5621 5621 5622 5624 5623 5626 5629 5631 5633 5634 5635 5636 5638 5639 5641 5643 5646 5648 5650 5653 5655 5658 5661 5664 5667 5670 5673 5676 5679 5681 5684 5687 5690 5692 5695
5618 5617 5617 5617 5617 5616 5615 5615 5613 5612 5613 5615 5617 5616 5619 5622 5623 5624 5625 5626 5627 5629 5630 5632 5634 5637 5639 5641 5644 5646 5649 5652 5655 5658 5660 5663 5666 5668 5671 5673 5676 5679 5682 5684
5610 5610 5610 5609 5608 5608 5607 5607 5607 5606 5606 5608 5608 5609 5614 5614 5615 5616 5617 5617 5618 5619 5622 5624 5626 5628 5630 5633 5635 5638 5640 5643 5646 5648 5651 5653 5656 5658 5661 5663 5666 5668 5671 5673
5602 5602 5602 5601 5601 5601 5600 5599 5601 5600 5599 5599 5600 5603 5606 5607 5607 5608 5608 5609 5610 5612 5613 5615 5617 5619 5622 5624 5626 5629 5631 5634 5637 5639 5642 5644 5646 5648 5651 5653 5655 5658 5660 5662
5595 5594 5595 5594 5594 5593 5593 5593 5593 5592 5591 5592 5594 5596 5599 5600 5600 5600 5600 5601 5602 5604 5605 5607 5609 5611 5613 5616 5618 5620 5623 5626 5628 5630 5632 5635 5637 5639 5641 5643 5645 5648 5650 5652
5588 5587 5588 5587 5587 5587 5587 5587 5586 5585 5585 5586 5586 5592 5593 5592 5592 5593 5593 5593 5594 5596 5597 5599 5601 5603 5605 5607 5609 5612 5614 5617 5619 5621 5623 5626 5628 5630 5632 5634 5636 5638 5640 5642
5581 5580 5580 5580 5580 5579 5579 5580 5580 5580 5580 5579 5579 5586 5586 5585 5585 5585 5586 5586 5587 5588 5590 5591 5593 5595 5597 5599 5601 5603 5606 5608 5611 5613 5615 5617 5619 5621 5623 5624 5626 5628 5630 5632
5573 5573 5572 5573 5574 5573 5572 5573 5573 5573 5572 5572 5572 5578 5578 5578 5577 5578 5578 5579 5579 5581 5582 5584 5585 5587 5589 5591 5593 5595 5597 5600 5602 5604 5606 5608 5610 5612 5614 5615 5617 5619 5621 5623
5565 5565 5566 5566 5565 5565 5565 5566 5565 5565 5564 5565 5566 5568 5570 5569 5569 5570 5571 5571 5572 5573 5574 5576 5577 5578 5580 5583 5585 5587 5589 5591 5594 5596 5598 5599 5601 5603 5605 5606 5608 5610 5612 5614
5558 5558 5558 5558 5557 5557 5557 5557 5557 5557 5557 5558 5559 5559 5561 5561 5561 5562 5563 5563 5564 5565 5566 5567 5569 5570 5572 5574 5576 5578 5580 5583 5585 5587 5589 5591 5593 5594 5595 5597 5598 5600 5602 5604
5550 5550 5549 5550 5549 5548 5548 5549 5549 5550 5550 5550 5550 5552 5553 5552 5553 5553 5554 5555 5556 5557 5558 5559 5561 5562 5563 5565 5567 5569 5572 5574 5576 5578 5580 5582 5583 5585 5586 5587 5589 5590 5592 5594
5543 5542 5541 5541 5541 5540 5541 5543 5542 5542 5542 5542 5542 5545 5545 5545 5545 5546 5546 5547 5548 5549 5550 5551 5552 5554 5555 5557 5559 5560 5562 5564 5566 5568 5570 5572 5573 5575 5576 5577 5579 5581 5582 5584
5535 5534 5533 5532 5533 5532 5536 5535 5534 5534 5535 5534 5535 5536 5536 5537 5538 5538 5538 5538 5539 5540 5541 5543 5544 5545 5547 5548 5550 5551 5553 5555 5556 5558 5560 5562 5563 5565 5566 5567 5569 5571 5572 5574
5528 5527 5526 5525 5523 5524 5527 5527 5526 5526 5527 5527 5527 5527 5528 5528 5529 5531 5530 5529 5530 5531 5533 5534 5535 5537 5538 5539 5541 5542 5544 5545 5547 5548 5550 5552 5553 5554 5556 5557 5559 5560 5562 5563
5520 5520 5519 5518 5516 5517 5521 5519 5518 5518 5518 5520 5519 5519 5520 5520 5521 5523 5522 5521 5522 5523 5524 5525 5527 5528 5529 5530 5532 5533 5534 5536 5538 5539 5540 5541 5542 5544 5546 5547 5548 5550 5551 5552
5513 5512 5512 5511 5509 5510 5512 5511 5511 5511 5512 5511 5511 5511 5511 5511 5512 5513 5513 5513 5514 5515 5516 5517 5518 5519 5520 5521 5522 5523 5525 5527 5528 5529 5530 5531 5533 5534 5535 5536 5537 5538 5540 5541
5505 5504 5504 5503 5503 5506 5505 5503 5503 5502 5502 5502 5502 5502 5502 5503 5503 5504 5504 5504 5505 5506 5507 5508 5508 5509 5510 5511 5512 5514 5516 5517 5518 5519 5520 5522 5523 5524 5525 5526 5527 5528 5529 5530
5497 5498 5497 5497 5498 5497 5496 5495 5494 5494 5493 5493 5494 5494 5494 5494 5494 5495 5495 5495 5496 5497 5498 5498 5499 5500 5501 5502 5503 5505 5506 5508 5509 5510 5511 5512 5513 5514 5515 5516 5516 5517 5518 5520
5490 5490 5489 5489 5490 5489 5488 5487 5487 5486 5485 5485 5485 5486 5486 5486 5486 5486 5486 5487 5487 5488 5489 5489 5490 5491 5492 5493 5494 5495 5497 5498 5499 5501 5502 5503 5504 5505 5505 5506 5506 5507 5508 5509
5483 5482 5481 5481 5482 5481 5481 5480 5479 5478 5478 5477 5478 5477 5477 5477 5477 5478 5478 5478 5478 5479 5480 5481 5481 5482 5483 5485 5486 5487 5488 5489 5490 5491 5493 5494 5495 5495 5496 5496 5497 5498 5499 5499
5476 5476 5475 5475 5475 5474 5474 5473 5472 5471 5470 5470 5470 5470 5470 5470 5470 5470 5470 5470 5470 5471 5471 5472 5473 5474 5475 5476 5478 5479 5480 5480 5482 5483 5484 5485 5486 5486 5487 5488 5488 5489 5490 5490